Regional Weather Roundup
Issued by NWS Northern Indiana

Home | Current Version | Previous Version | Graphics & Text | Print | Product List | Glossary On
Versions: 1 2 3 4 5 6 7 8 9 10 11 12 13 14 15 16 17 18 19 20 21 22 23 24 25 26 27 28 29 30 31 32 33 34 35 36 37 38 39 40 41 42 43 44 45 46 47 48 49 50
000
ASUS43 KIWX 210000
RWRIWX

KIWX WEATHER ROUNDUP
NATIONAL WEATHER SERVICE NORTHERN INDIANA
700 PM EST THU NOV 20 2014

NOTE: "FAIR" INDICATES FEW OR NO CLOUDS BELOW 12,000 FEET WITH NO
SIGNIFICANT WEATHER AND/OR OBSTRUCTIONS TO VISIBILITY.

* THESE STATIONS ARE NOT UNDER NWS QUALITY CONTROL. THEY ALSO MAY NOT
  REPORT WEATHER SUCH AS PRECIPITATION OR FOG.

INZ001>027-210100-
NORTHERN INDIANA

CITY           SKY/WX    TMP DP  RH WIND       PRES   REMARKS
GARY*          CLEAR     27   5  39 W15       30.17R WCI  15
KNOX*          CLEAR     23   5  46 W8        30.14R WCI  14
6HR MIN TEMP:  11; 6HR MAX TEMP:  81;

SOUTH BEND     MOCLDY    22   8  55 W9        30.12R WCI  12
6HR MIN TEMP:  22; 6HR MAX TEMP:  27;

ELKHART*       CLOUDY    25   7  46 W12       30.11R WCI  14
GOSHEN         MOCLDY    22   7  52 W9        30.10R WCI  12
6HR MIN TEMP:  22; 6HR MAX TEMP:  28;

MONTICELLO*    CLEAR     24  11  57 W8        30.16R WCI  15
6HR MIN TEMP:  24; 6HR MAX TEMP:  31;

ANGOLA*        CLOUDY    23   9  54 W7        30.06R WCI  15
FORT WAYNE     CLEAR     21  11  65 W10       30.12R WCI  10
6HR MIN TEMP:  21; 6HR MAX TEMP:  28;

PERU/GRISSOM   CLEAR     22  15  75 W8        30.14R WCI  12
6HR MIN TEMP:  22; 6HR MAX TEMP:  29;


$$
INZ028>050-210100-
CENTRAL INDIANA

CITY           SKY/WX    TMP DP  RH WIND       PRES   REMARKS
LAFAYETTE      CLEAR     24  11  57 W7        30.18R WCI  16
6HR MIN TEMP:  24; 6HR MAX TEMP:  30;

KOKOMO*        CLEAR     25  12  58 W10       30.15R WCI  15
6HR MIN TEMP:  25; 6HR MAX TEMP:  28;

MUNCIE*        CLOUDY    26  15  63 MISG      30.14R
6HR MIN TEMP:  26; 6HR MAX TEMP:  28;

INDIANAPOLIS   PTCLDY    25  14  63 SW13      30.18R WCI  14
6HR MIN TEMP:  25; 6HR MAX TEMP:  30;


$$
MIZ043>046-050>051-056>058-064>065-071>073-077>080-210100-
SOUTHWEST LOWER MICHIGAN

CITY           SKY/WX    TMP DP  RH WIND       PRES   REMARKS
BATTLE CREEK   LGT SNOW  22  15  75 W9        30.07R WCI  12
6HR MIN TEMP:  22; 6HR MAX TEMP:  26; 6HR PCP: TRACE;

BENTON HARBOR  CLOUDY    25   7  46 W21G28    30.11R WCI  11
6HR MIN TEMP:  24; 6HR MAX TEMP:  27;

COLDWATER*     MOCLDY    22  14  72 W8        30.07R WCI  12
6HR MIN TEMP:  22; 6HR MAX TEMP:  27;

HILLSDALE*     PTCLDY    19  15  87 W6        30.05R WCI  10
HOLLAND        FLURRIES  25  11  55 NW16G26   30.08R WCI  12
6HR MIN TEMP:  24; 6HR MAX TEMP:  25; 6HR PCP: TRACE;

GRAND RAPIDS   LGT SNOW  20  16  84 W6        30.07R WCI  12
6HR MIN TEMP:  20; 6HR MAX TEMP:  23; 6HR PCP:  0.02;

KALAMAZOO      CLOUDY    21  15  78 W8        30.07R WCI  11
6HR MIN TEMP:  21; 6HR MAX TEMP:  24; 6HR PCP: TRACE;

STURGIS*       CLOUDY    23  12  63 W6        30.08R WCI  16
THREE RIVERS*  FAIR      23  10  58 W7        30.09R WCI  14
6HR MIN TEMP:  23; 6HR MAX TEMP:  27;


$$
OHZ001>008-015>018-024>025-210100-
NORTHWEST OHIO

CITY           SKY/WX    TMP DP  RH WIND       PRES   REMARKS
DEFIANCE       CLEAR     24   9  52 W5        30.10R WCI  18
6HR MIN TEMP:  24; 6HR MAX TEMP:  28;

FINDLAY        CLOUDY    26  15  63 SW16G22   30.09R WCI  14
6HR MIN TEMP:  26; 6HR MAX TEMP:  27;

TOLEDO EXPRESS PTCLDY    21   9  59 W8        30.08R WCI  11
6HR MIN TEMP:  21; 6HR MAX TEMP:  27;

TOLEDO METCALF PTCLDY    23  10  57 W10       30.09R WCI  12
6HR MIN TEMP:  23; 6HR MAX TEMP:  27;

LIMA           CLOUDY    26  15  63 SW15      30.10R WCI  14
6HR MIN TEMP:  25; 6HR MAX TEMP:  27; 6HR PCP: TRACE;


$$
AND FOR LAKE MICHIGAN COASTAL AND OPEN LAKE BUOY OBSERVATIONS

STATION/POSITION TEMP    WIND        PRES    VSBY  WAVE
                 AIR SEA DIR/SP/G                  HT/PER
                 (F)     (DEG/KT/KT) (MB)    (MI)  (FT/S)
CALUMET HARBOR    25     260/ 11/ 21 1019.7R
MICHIGAN CITY     27     250/ 28/ 35   N/A
SAINT JOSEPH      28     260/ 16/ 25 1020.3R
SOUTH LAKE BUOY   26 43  280/ 21/ 27 1019.4R         6/ 6

$$
&&



USA.gov is the U.S. government's official web portal to all federal, state and local government web resources and services.